[[{"header":{"parameterUnit":"m.s-1","parameterCategory":1,"la1":30.2991,"la2":30.254,"lo1":-89.0895,"lo2":-89.0444,"dy":0.0017,"dx":0.0017,"nx":28,"ny":28,"refTime":"2023-09-23T03:00:00:Z","depth":0,"parameterNumber":2,"parameterNumberName":"U-component_of_WINDS"},"data":[0,0,0,0,0,0,0,0,0,0,0,0,0,0,0,0,0,0,0,0,0,0,0,0,0,0,0,0,0,0,0,0,0,0,0,0,0,0,0,0,0,0,0,0,0,0,0,0,0,0,0,0,0,0,0,0,0,0,-0.552,-0.5521,0,-0.5548,-0.5548,-0.5549,-0.5534,-0.5533,-0.5532,-0.5531,-0.5561,-0.5562,-0.5564,0,0,0,0,0,0,0,0,0,0,0,0,0,-0.5455,-0.5457,-0.552,-0.5521,-0.5521,-0.5548,-0.5548,-0.5549,-0.5534,-0.5533,-0.5532,-0.5531,-0.556,-0.5562,-0.5564,0,0,0,0,0,0,0,0,0,0,0,0,0,-0.5484,-0.5457,-0.552,-0.5517,-0.5517,-0.5548,-0.5548,-0.5549,-0.5534,-0.5533,-0.5532,-0.5531,-0.556,-0.5562,-0.5564,-0.56,0,0,-0.5571,-0.5572,0,0,0,0,0,0,0,0,-0.5482,-0.5486,-0.5517,-0.5517,-0.5517,-0.5536,-0.5536,-0.5566,-0.5534,-0.5527,-0.5531,-0.553,-0.5553,-0.5556,-0.5564,-0.5602,-0.5603,-0.5571,-0.5572,-0.5573,-0.5574,0,0,0,0,0,0,0,-0.548,-0.5485,-0.5531,-0.5517,-0.5517,-0.5514,-0.5517,-0.5542,-0.5547,-0.5528,-0.5527,-0.553,-0.5553,-0.5562,-0.5564,-0.5604,-0.5571,-0.5573,-0.5574,-0.5575,-0.5674,-0.5676,0,0,0,0,0,0,-0.5478,-0.5483,-0.553,-0.5532,-0.5496,-0.5516,-0.5519,-0.5531,-0.5546,-0.5547,-0.5531,-0.553,-0.5559,-0.5562,-0.5565,-0.561,-0.5573,-0.5575,-0.5577,-0.5673,-0.5675,-0.5676,0,0,0,0,0,0,-0.5477,-0.5482,-0.5529,-0.5507,-0.5513,-0.5519,-0.5532,-0.5532,-0.5541,-0.5549,-0.555,-0.5539,-0.5558,-0.5562,-0.5592,-0.5611,-0.5576,-0.5578,-0.5671,-0.5673,-0.5675,-0.57,0,0,0,0,0,0,-0.5475,-0.5482,-0.5496,-0.5508,-0.5514,-0.5555,-0.5533,-0.5534,-0.5545,-0.5543,-0.5556,-0.5557,-0.5557,-0.5589,-0.5594,-0.5614,-0.558,-0.567,-0.5672,-0.5675,-0.5698,-0.5703,-0.5707,0,0,0,0,0,-0.5473,-0.5501,-0.5496,-0.5502,-0.5531,-0.5556,-0.556,-0.5559,-0.5546,-0.556,-0.5566,-0.5557,-0.5608,-0.5592,-0.5598,-0.5618,-0.5669,-0.5672,-0.5674,-0.5695,-0.5702,-0.5707,0,0,0,0,0,0,-0.5492,-0.5503,-0.5498,-0.5531,-0.5543,-0.5554,-0.5572,-0.5565,-0.5581,-0.5579,-0.5577,-0.558,-0.5612,-0.5618,-0.56,-0.5655,-0.5636,-0.5641,-0.565,-0.5656,-0.5661,-0.5659,-0.5582,0,0,0,0,0,-0.55,-0.5519,-0.5527,-0.5556,-0.5562,-0.5566,-0.5577,-0.5575,-0.5587,-0.5592,-0.56,-0.5612,-0.5631,-0.5644,-0.5661,-0.5698,-0.5701,-0.5715,-0.5719,-0.5723,-0.5727,-0.5749,-0.5755,-0.5686,-0.5686,-0.5685,0,0,-0.5517,-0.5525,-0.5537,-0.556,-0.5569,-0.559,-0.557,-0.5592,-0.5608,-0.5596,-0.5625,-0.5631,-0.5645,-0.5678,-0.5693,-0.5684,-0.5747,-0.5727,-0.573,-0.5732,-0.5752,-0.5759,-0.5765,-0.5688,-0.5687,-0.5687,0,0,-0.5558,-0.5566,-0.5591,-0.5601,-0.5615,-0.5617,-0.5623,-0.5635,-0.5638,-0.5667,-0.5659,-0.5677,-0.571,-0.572,-0.573,-0.5776,-0.5769,-0.5782,-0.5807,-0.5827,-0.5833,-0.5838,-0.5856,-0.5862,-0.5786,-0.5786,-0.5786,0,-0.5578,-0.5608,-0.5605,-0.5628,-0.5639,-0.5629,-0.5655,-0.5664,-0.5684,-0.5692,-0.5681,-0.5722,-0.573,-0.5767,-0.5779,-0.5786,-0.5794,-0.5781,-0.5832,-0.5837,-0.5842,-0.5859,-0.5865,-0.5787,-0.5787,-0.5787,-0.5787,0,-0.5632,-0.5653,-0.5672,-0.5691,-0.5703,-0.5728,-0.573,-0.5743,-0.574,-0.5744,-0.5774,-0.5784,-0.5804,-0.5812,-0.5809,-0.5849,-0.5843,-0.5832,-0.5813,-0.585,-0.5866,-0.5872,-0.5789,-0.5789,-0.5788,-0.5788,0,0,-0.5687,-0.5704,-0.5711,-0.572,-0.5735,-0.5751,-0.5775,-0.5795,-0.5807,-0.5821,-0.5842,-0.587,-0.586,-0.5871,-0.5869,-0.5887,-0.5925,-0.5874,-0.5875,-0.5885,-0.5971,-0.598,-0.5987,-0.592,-0.5921,-0.5922,-0.597,0,-0.5731,-0.5773,-0.5772,-0.5812,-0.5832,-0.5822,-0.5844,-0.5855,-0.5859,-0.5877,-0.5882,-0.5902,-0.5887,-0.5894,-0.5911,-0.5917,-0.5942,-0.5913,-0.5941,-0.5942,-0.5939,-0.5996,-0.6005,-0.605,-0.5976,-0.5977,-0.5978,0,-0.5788,-0.5803,-0.5845,-0.5858,-0.5866,-0.5885,-0.5904,-0.5921,-0.5934,-0.5936,-0.5948,-0.5944,-0.5969,-0.5949,-0.5984,-0.5965,-0.5976,-0.598,-0.5982,-0.5986,-0.5963,-0.6002,-0.6064,-0.6072,-0.5988,-0.5987,-0.5986,0,-0.5826,-0.5857,-0.5887,-0.5894,-0.5909,-0.5923,-0.593,-0.5942,-0.5954,-0.597,-0.5978,-0.5997,-0.6008,-0.6023,-0.6024,-0.6008,-0.606,-0.6039,-0.6063,-0.6063,-0.6076,-0.6075,-0.6142,-0.608,-0.608,-0.608,-0.608,0,-0.5876,-0.5903,-0.5904,-0.5923,-0.5952,-0.595,-0.598,-0.5985,-0.5996,-0.6016,-0.6008,-0.6027,-0.6027,-0.6046,-0.6047,-0.6077,-0.6081,-0.6084,-0.6084,-0.6086,-0.6086,-0.6094,-0.6092,-0.6082,-0.6081,-0.6081,-0.6081,0,-0.5924,-0.5926,-0.5958,-0.5969,-0.5973,-0.5995,-0.6005,-0.6022,-0.6025,-0.6051,-0.6056,-0.6062,-0.6084,-0.6086,-0.6112,-0.6112,-0.615,-0.6145,-0.6145,-0.6145,-0.617,-0.6168,-0.6245,-0.6256,-0.6186,-0.6186,-0.6187,0,-0.5957,-0.5977,-0.5991,-0.6003,-0.6011,-0.6031,-0.6044,-0.6043,-0.6056,-0.6073,-0.6089,-0.6111,-0.6128,-0.6164,-0.6171,-0.6191,-0.6188,-0.6214,-0.6191,-0.6192,-0.619,-0.619,-0.6193,-0.6219,-0.6219,-0.622,-0.6221,0,-0.6015,-0.6015,-0.6034,-0.6052,-0.6068,-0.6082,-0.6096,-0.6107,-0.6107,-0.6123,-0.6146,-0.6159,-0.6186,-0.6208,-0.6227,-0.6235,-0.6229,-0.6227,-0.6234,-0.6237,-0.6237,-0.6239,-0.6159,-0.6226,-0.6226,-0.6225,-0.6225,-0.6225,-0.6058,-0.6076,-0.6089,-0.611,-0.612,-0.6133,-0.6151,-0.6156,-0.6175,-0.6196,-0.6194,-0.622,-0.6233,-0.6259,-0.6268,-0.6288,-0.628,-0.6289,-0.6292,-0.6295,-0.6298,-0.6232,-0.6292,-0.6291,-0.6291,-0.6291,-0.6291,0,-0.6118,-0.6125,-0.6144,-0.6164,-0.6181,-0.6172,-0.6187,-0.6202,-0.6224,-0.6237,-0.6254,-0.6281,-0.6302,-0.631,-0.6331,-0.6346,-0.6344,-0.6352,-0.6351,-0.6354,-0.6304,-0.6297,-0.6353,-0.6353,-0.6353,-0.6353,-0.6353,-0.6353,-0.6151,-0.6181,-0.6183,-0.6219,-0.6226,-0.6251,-0.6261,-0.6273,-0.6283,-0.6313,-0.6331,-0.6336,-0.6347,-0.6369,-0.6388,-0.639,-0.6399,-0.6409,-0.6409,-0.6363,-0.6357,-0.6351,-0.6344,-0.641,-0.641,-0.6458,-0.6458,-0.6458]},{"header":{"parameterUnit":"m.s-1","parameterCategory":1,"la1":30.2991,"la2":30.254,"lo1":-89.0895,"lo2":-89.0444,"dy":0.0017,"dx":0.0017,"nx":28,"ny":28,"refTime":"2023-09-23T03:00:00:Z","depth":0,"parameterNumber":3,"parameterNumberName":"V-component_of_WINDS"},"data":[0,0,0,0,0,0,0,0,0,0,0,0,0,0,0,0,0,0,0,0,0,0,0,0,0,0,0,0,0,0,0,0,0,0,0,0,0,0,0,0,0,0,0,0,0,0,0,0,0,0,0,0,0,0,0,0,0,0,3.5883,3.5883,0,3.5882,3.5882,3.5882,3.5831,3.583,3.5829,3.5828,3.5827,3.5828,3.5829,0,0,0,0,0,0,0,0,0,0,0,0,0,3.584,3.5841,3.5883,3.5883,3.5883,3.5882,3.5882,3.5882,3.5832,3.583,3.5828,3.5827,3.5826,3.5828,3.5829,0,0,0,0,0,0,0,0,0,0,0,0,0,3.5851,3.5841,3.5883,3.5857,3.5855,3.5882,3.5882,3.5882,3.5832,3.583,3.5828,3.5826,3.5826,3.5828,3.583,3.588,0,0,3.5835,3.5836,0,0,0,0,0,0,0,0,3.585,3.5852,3.5861,3.5859,3.5857,3.5855,3.5866,3.5881,3.5833,3.5841,3.5828,3.5825,3.5838,3.5838,3.5843,3.588,3.588,3.5835,3.5836,3.5837,3.5838,0,0,0,0,0,0,0,3.585,3.5852,3.5882,3.5861,3.5859,3.5846,3.5845,3.5869,3.585,3.584,3.5836,3.5837,3.5836,3.5841,3.5842,3.588,3.5835,3.5837,3.5838,3.5839,3.5957,3.5959,0,0,0,0,0,0,3.5852,3.5852,3.5882,3.5882,3.5849,3.5848,3.5848,3.5857,3.585,3.5847,3.5839,3.5835,3.5839,3.584,3.5842,3.5899,3.5837,3.5839,3.584,3.5955,3.5957,3.5959,0,0,0,0,0,0,3.5852,3.5856,3.5882,3.5866,3.5868,3.5851,3.5862,3.5858,3.5863,3.5849,3.5845,3.5847,3.5837,3.5839,3.587,3.5898,3.584,3.5841,3.5952,3.5955,3.5958,3.6014,0,0,0,0,0,0,3.5851,3.5856,3.5875,3.5867,3.587,3.5911,3.5864,3.586,3.5866,3.5861,3.5856,3.5853,3.5836,3.5868,3.5872,3.5899,3.5843,3.595,3.5954,3.5957,3.6009,3.6018,3.6026,0,0,0,0,0,3.5849,3.5891,3.5876,3.588,3.5893,3.5913,3.5914,3.5894,3.5869,3.5887,3.5878,3.5853,3.5895,3.5872,3.5876,3.5904,3.5948,3.5952,3.5957,3.6005,3.6016,3.6026,0,0,0,0,0,0,3.5903,3.5889,3.5873,3.5913,3.5914,3.5904,3.5927,3.5906,3.5915,3.591,3.5884,3.5883,3.5918,3.5914,3.5889,3.5952,3.5917,3.5922,3.5952,3.5962,3.5971,3.597,3.5844,0,0,0,0,0,3.5919,3.5937,3.5924,3.5961,3.5962,3.5945,3.5953,3.5937,3.5937,3.5937,3.593,3.5932,3.5944,3.5954,3.5965,3.6009,3.6006,3.6031,3.6039,3.6046,3.605,3.6071,3.6082,3.5974,3.5974,3.5974,0,0,3.5954,3.5948,3.5961,3.5971,3.597,3.5988,3.5946,3.5967,3.5979,3.5941,3.5968,3.5964,3.5963,3.6,3.6017,3.5999,3.608,3.6052,3.6058,3.6058,3.6077,3.6087,3.6096,3.5978,3.5977,3.5977,0,0,3.6024,3.6023,3.6052,3.6052,3.6051,3.6039,3.6047,3.6039,3.6034,3.6062,3.6033,3.6048,3.6072,3.6072,3.6075,3.6146,3.6122,3.615,3.6193,3.6214,3.6222,3.6229,3.6252,3.6261,3.6155,3.6155,3.6156,0,3.6067,3.6092,3.607,3.6092,3.6097,3.6063,3.6092,3.6093,3.6096,3.61,3.608,3.6108,3.6106,3.6141,3.6158,3.6163,3.6169,3.615,3.6223,3.623,3.6236,3.6258,3.6267,3.6159,3.6158,3.6158,3.6158,0,3.6144,3.6162,3.6186,3.6188,3.6196,3.6222,3.6203,3.6214,3.6197,3.6187,3.6215,3.6211,3.622,3.6228,3.6213,3.6262,3.625,3.6227,3.6191,3.625,3.627,3.6278,3.6163,3.6162,3.6161,3.616,0,0,3.6247,3.6237,3.6246,3.6246,3.6242,3.6255,3.6279,3.6288,3.6296,3.63,3.6318,3.6339,3.6317,3.6321,3.6305,3.6324,3.6377,3.6298,3.6298,3.6311,3.6428,3.6444,3.6454,3.6362,3.6364,3.6365,3.6427,0,3.6314,3.6353,3.6334,3.6375,3.639,3.6358,3.6379,3.6378,3.637,3.6381,3.6372,3.6386,3.6358,3.6359,3.6377,3.6367,3.64,3.6363,3.6378,3.6379,3.6376,3.6464,3.6481,3.654,3.6435,3.6436,3.6437,0,3.6396,3.6402,3.6445,3.6436,3.6442,3.6461,3.6466,3.6478,3.6477,3.6469,3.6473,3.6453,3.6475,3.6441,3.6471,3.6446,3.6451,3.6448,3.6449,3.6448,3.641,3.6463,3.6558,3.6566,3.645,3.6449,3.6448,0,3.6465,3.6483,3.6511,3.6512,3.6504,3.6517,3.6514,3.6511,3.6517,3.6522,3.6525,3.6534,3.6538,3.6544,3.6526,3.6504,3.6558,3.6523,3.6551,3.6551,3.6562,3.6561,3.6656,3.6569,3.6569,3.6569,3.6569,0,3.6539,3.6566,3.6541,3.6557,3.6586,3.6564,3.6593,3.6587,3.6584,3.6598,3.6572,3.6586,3.6563,3.6575,3.6562,3.6587,3.659,3.6583,3.6579,3.6584,3.6585,3.6586,3.658,3.6571,3.6571,3.657,3.657,0,3.662,3.6604,3.6631,3.6621,3.6619,3.664,3.6631,3.6646,3.6636,3.6654,3.6657,3.6641,3.6654,3.6637,3.6648,3.6639,3.6673,3.6664,3.6673,3.6669,3.6697,3.6694,3.6795,3.6807,3.6714,3.6715,3.6716,0,3.6667,3.6687,3.6678,3.6686,3.6684,3.6697,3.6703,3.6682,3.6688,3.6688,3.6702,3.6712,3.6719,3.674,3.673,3.6738,3.6727,3.6762,3.6728,3.6732,3.6725,3.6723,3.6724,3.6768,3.6769,3.677,3.6771,0,3.6753,3.6744,3.6752,3.6758,3.6765,3.6769,3.6771,3.6779,3.6757,3.6766,3.6777,3.6783,3.6794,3.6803,3.6808,3.6805,3.6784,3.6782,3.6788,3.6793,3.6796,3.6792,3.6689,3.6779,3.6778,3.6778,3.6777,3.6777,3.6817,3.6832,3.6827,3.6838,3.6837,3.6839,3.6851,3.6842,3.6852,3.6858,3.6846,3.686,3.6858,3.6862,3.6861,3.6873,3.6857,3.6867,3.6869,3.6872,3.6875,3.6797,3.6874,3.6874,3.6873,3.6873,3.6873,0,3.6898,3.6894,3.6904,3.6906,3.6914,3.6894,3.6895,3.6902,3.6915,3.6915,3.6922,3.6935,3.6944,3.6934,3.6941,3.6952,3.6942,3.6954,3.6952,3.6951,3.6889,3.6882,3.6962,3.6962,3.6962,3.6962,3.6962,3.6962,3.6942,3.6965,3.6956,3.6979,3.6974,3.6988,3.6989,3.6991,3.699,3.7005,3.7013,3.7006,3.7001,3.7008,3.7015,3.7012,3.7015,3.703,3.7023,3.6965,3.6956,3.6948,3.694,3.7031,3.7032,3.7084,3.7085,3.7085]}]]